Home   Weather   Taiohae   Past weeks

Flag for French Polynesia Past Weather in Taiohae, Marquesas Islands, French Polynesia — Yesterday and Last 2 Weeks

Now
77 °F

Warm.


Feels Like: 78 °F
Forecast: 77 / 84 °F
Wind: 2 mph from North

Location: Atuona

Current Time: Apr 27, 2017 at 5:26:13 am

Latest Report: Apr 27, 2017 at 3:30 am


Visibility: N/A

Pressure: 29.81 "Hg

Humidity: 96%

Dew Point: 76 °F

Location of TaiohaeLocation

Past Weather in Taiohae — Graph

°F

Taiohae Temperature Yesterday

Maximum temperature yesterday: 84 °F (at 11:30 am)
Minimum temperature yesterday: 75 °F (at 2:30 am)
Average temperature yesterday: 78 °F

High & Low Weather Summary for the Past Weeks

 TemperatureHumidityPressure
High92 °F (Apr 16, 1:30 pm)97% (Apr 21, 5:30 am)29.94 "Hg (Apr 21, 5:30 am)
Low75 °F (Apr 26, 2:30 am)53% (Apr 16, 11:30 am)29.70 "Hg (Apr 14, 2:30 pm)
Average81 °F85%29.82 "Hg
* Reported Apr 12 3:30 am — Apr 27 3:30 am, Taiohae, Weather by CustomWeather, © 2017

Note: Actual official high and low records may vary slightly from our data, if they occured in-between our weather recording intervals... More about our weather records

Advertising

Taiohae Weather History for the Previous 24 Hours

Scroll right to see more
 ConditionsComfort  
Time TempWeatherWind HumidityBarometerVisibility
3:30 am
Thu, Apr 27
77 °FWarm.2 mph96%29.81 "HgN/A
2:30 am77 °FWarm.6 mph95%29.82 "HgN/A
12:30 am78 °FWarm.3 mph93%29.84 "HgN/A
11:30 pm
Wed, Apr 26
78 °FWarm.2 mph90%29.85 "HgN/A
10:30 pm77 °FMild.1 mph91%29.87 "HgN/A
8:30 pm76 °FMild.3 mph93%29.87 "HgN/A
7:30 pm77 °FMild.2 mph91%29.86 "HgN/A
5:30 pm77 °FWarm.6 mph87%29.84 "HgN/A
4:30 pm78 °FThunderstorms. Overcast.8 mph85%29.83 "Hg25 mi
3:30 pm80 °FThunderstorms. Overcast.3 mph88%29.81 "Hg19 mi
2:30 pm81 °FOvercast.3 mph85%29.82 "Hg19 mi
1:30 pm80 °FOvercast.5 mph90%29.84 "Hg19 mi
12:30 pm79 °FSprinkles. Overcast.9 mph89%29.86 "Hg3 mi
11:30 am84 °FOvercast.1 mph76%29.87 "Hg19 mi
10:30 am79 °FOvercast.7 mph92%29.90 "Hg19 mi
9:30 am78 °FOvercast.3 mph90%29.91 "Hg6 mi
8:30 am76 °FSprinkles. Overcast.7 mph88%29.94 "Hg6 mi
6:30 am75 °FOvercast.5 mph95%29.88 "Hg5 mi
5:30 am76 °FPartly sunny.5 mph93%29.85 "Hg9 mi
Weather by CustomWeather, © 2017

See weather overviewHow to use our weather pages